Home > Weather > Limoges > Past weeks

Flag for France Past Weather in Limoges, Limousin, France — Yesterday and Last 2 Weeks

Now
68 °F

Mostly cloudy.


Feels Like: 68 °F
Forecast: 56 / 74 °F
Wind: 5 mph from Northwest

Location: Limoges Airport

Current Time: Jun 28, 2016 at 3:31:26 PM

Latest Report: Jun 28, 2016 at 3:00 PM


Visibility: N/A

Pressure: 30.09 "Hg

Humidity: 69%

Dew Point: 57 °F

Location of LimogesLocation

Past Weather in Limoges — Graph

°F

Limoges Temperature Yesterday

Maximum temperature yesterday: 66 °F (at 6:30 PM)
Minimum temperature yesterday: 52 °F (at 4:30 AM)
Average temperature yesterday: 59 °F

High & Low Weather Summary for the Past Weeks

 TemperatureHumidityPressure
High88 °F (Jun 22, 4:00 PM)100% (Jun 13, 4:30 PM)30.36 "Hg (Jun 13, 4:30 PM)
Low50 °F (Jun 17, 3:30 AM)37% (Jun 23, 12:30 PM)29.59 "Hg (Jun 15, 5:00 AM)
Average62 °F80%30.04 "Hg
* Reported Jun 13 2:00 PM — Jun 28 2:30 PM, Limoges, Weather by CustomWeather, © 2016

Note: Actual official high and low records may vary slightly from our data, if they occured in-between our weather recording intervals... More about our weather records

Advertising

Limoges Weather History for the Previous 24 Hours

Scroll right to see more
 ConditionsComfort  
Time TempWeatherWind HumidityBarometerVisibility
2:30 PM
Tue, Jun 28
68 °FMostly cloudy.7 mph69%30.12 "HgN/A
2:00 PM68 °FMostly cloudy.5 mph69%30.12 "HgN/A
1:30 PM68 °FMostly cloudy.5 mph69%30.12 "HgN/A
1:00 PM68 °FOvercast.6 mph73%30.12 "HgN/A
12:30 PM68 °FOvercast.5 mph69%30.12 "HgN/A
12:00 PM66 °FPartly sunny.6 mph73%30.15 "HgN/A
11:30 AM66 °FMostly cloudy.3 mph73%30.15 "HgN/A
11:00 AM64 °FCloudy.5 mph78%30.15 "HgN/A
10:30 AM63 °FMore clouds than sun.3 mph83%30.15 "HgN/A
10:00 AM61 °FOvercast.5 mph83%30.15 "HgN/A
9:30 AM61 °FOvercast.5 mph83%30.15 "HgN/A
9:00 AM61 °FLow clouds.3 mph83%30.15 "HgN/A
8:30 AM59 °FScattered clouds.3 mph94%30.15 "HgN/A
8:00 AM57 °FPassing clouds.2 mph100%30.15 "HgN/A
7:30 AM57 °FPartly sunny.2 mph94%30.15 "HgN/A
7:00 AM55 °FMostly cloudy.2 mph100%30.18 "Hg4 mi
6:30 AM55 °FFog.2 mph100%30.18 "Hg1 mi
6:00 AM55 °FFog.2 mph100%30.18 "Hg0 mi
5:30 AM55 °FPassing clouds.No wind94%30.18 "Hg4 mi
5:00 AM55 °FClear.No wind94%30.18 "Hg10 mi
4:30 AM57 °FClear.2 mph94%30.18 "Hg10 mi
4:00 AM57 °FPassing clouds.2 mph94%30.18 "HgN/A
3:30 AM59 °FOvercast.3 mph94%30.18 "HgN/A
3:00 AM59 °FOvercast.3 mph94%30.21 "HgN/A
2:30 AM59 °FOvercast.2 mph94%30.21 "HgN/A
2:00 AM59 °FOvercast.3 mph94%30.21 "HgN/A
1:30 AM59 °FPassing clouds.5 mph94%30.21 "HgN/A
1:00 AM59 °FMostly cloudy.3 mph94%30.21 "HgN/A
12:30 AM59 °FPassing clouds.3 mph94%30.21 "HgN/A
12:00 AM59 °FPassing clouds.5 mph94%30.21 "HgN/A
11:30 PM
Mon, Jun 27
59 °FPassing clouds.3 mph94%30.21 "HgN/A
11:00 PM59 °FOvercast.2 mph94%30.21 "HgN/A
10:30 PM61 °FPartly sunny.5 mph88%30.21 "HgN/A
10:00 PM61 °FPartly sunny.6 mph88%30.21 "HgN/A
9:30 PM63 °FPartly sunny.3 mph83%30.21 "HgN/A
9:00 PM63 °FScattered clouds.5 mph83%30.21 "HgN/A
8:30 PM64 °FOvercast.7 mph78%30.21 "HgN/A
8:00 PM64 °FOvercast.6 mph78%30.21 "HgN/A
7:30 PM64 °FPartly sunny.5 mph78%30.21 "HgN/A
7:00 PM64 °FBroken clouds.5 mph78%30.21 "HgN/A
6:30 PM66 °FMostly cloudy.7 mph73%30.21 "HgN/A
6:00 PM64 °FBroken clouds.5 mph78%30.24 "HgN/A
5:30 PM64 °FMostly cloudy.7 mph73%30.24 "HgN/A
5:00 PM64 °FMore clouds than sun.8 mph73%30.24 "HgN/A
4:30 PM64 °FOvercast.7 mph73%30.24 "HgN/A
4:00 PM64 °FOvercast.8 mph73%30.24 "HgN/A
3:30 PM64 °FMostly cloudy.6 mph73%30.24 "HgN/A
3:00 PM63 °FMore clouds than sun.7 mph73%30.24 "HgN/A
Weather by CustomWeather, © 2016

See weather overviewHow to use our weather pages